Station Historical Data
Daily Summary for February 3, 2012 Units:  English    Metric   Both
« Previous Day
Next Day »
Daily Weekly Monthly Yearly Custom
  High: Low: Average:
Temperature: 59.3 °F 42.8 °F 51.2 °F
Dew Point: 48.4 °F 34.4 °F 40 °F
Humidity: 93% 51% 66%
Wind Speed: 14.0mph 1.0mph 5.8mph
Wind Gust: 21.0mph - -
Wind- - East
Pressure: 30.30 in 30.19 in -
Precipitation: 0.04 in    
Historical Graphs
 
 
Tabular Data for February 3, 2012
Time Temperature Dew Point Pressure Wind Wind Speed Wind Gust Humidity Rainfall Rate (Hourly) Conditions
00:00 47.7 °F 35.3 °F 30.27 in NNE 3.0 mph 5.0 mph 62% 0.00 in
00:01 47.6 °F 35.2 °F 30.27 in NNE 4.0 mph 5.0 mph 62% 0.00 in
00:06 47.5 °F 35.1 °F 30.27 in NE 6.0 mph 6.0 mph 62% 0.00 in
00:11 47.5 °F 35.1 °F 30.27 in NE 3.0 mph 6.0 mph 62% 0.00 in
00:16 47.5 °F 35.1 °F 30.27 in NE 4.0 mph 4.0 mph 62% 0.00 in
00:21 47.5 °F 35.1 °F 30.27 in NNE 4.0 mph 5.0 mph 62% 0.00 in
00:26 47.5 °F 35.1 °F 30.27 in NNE 3.0 mph 5.0 mph 62% 0.00 in
00:31 47.5 °F 34.7 °F 30.27 in NE 3.0 mph 7.0 mph 61% 0.00 in
00:36 47.4 °F 35.0 °F 30.27 in NNE 3.0 mph 5.0 mph 62% 0.00 in
00:41 47.4 °F 35.0 °F 30.27 in NE 4.0 mph 6.0 mph 62% 0.00 in
00:46 47.5 °F 34.7 °F 30.27 in NE 3.0 mph 4.0 mph 61% 0.00 in
00:51 47.4 °F 35.0 °F 30.27 in NE 3.0 mph 4.0 mph 62% 0.00 in
00:56 47.5 °F 34.7 °F 30.27 in NE 2.0 mph 4.0 mph 61% 0.00 in
01:01 47.5 °F 34.7 °F 30.27 in NE 3.0 mph 4.0 mph 61% 0.00 in
01:06 47.1 °F 34.8 °F 30.27 in NE 3.0 mph 4.0 mph 62% 0.00 in
01:11 47.0 °F 34.7 °F 30.27 in NE 2.0 mph 4.0 mph 62% 0.00 in
01:16 46.9 °F 34.6 °F 30.27 in NE 2.0 mph 4.0 mph 62% 0.00 in
01:21 46.9 °F 35.0 °F 30.28 in ENE 2.0 mph 4.0 mph 63% 0.00 in
01:26 47.0 °F 35.1 °F 30.27 in NE 3.0 mph 5.0 mph 63% 0.00 in
01:31 47.1 °F 34.8 °F 30.27 in NNE 2.0 mph 6.0 mph 62% 0.00 in
01:36 47.1 °F 35.2 °F 30.27 in NE 4.0 mph 5.0 mph 63% 0.00 in
01:42 47.2 °F 34.9 °F 30.27 in NE 2.0 mph 5.0 mph 62% 0.00 in
01:47 47.0 °F 35.1 °F 30.27 in NE 6.0 mph 6.0 mph 63% 0.00 in
01:52 47.0 °F 35.1 °F 30.27 in NE 3.0 mph 5.0 mph 63% 0.00 in
01:57 46.8 °F 34.9 °F 30.27 in NE 5.0 mph 7.0 mph 63% 0.00 in
02:02 46.9 °F 35.0 °F 30.27 in NE 3.0 mph 6.0 mph 63% 0.00 in
02:07 46.9 °F 35.0 °F 30.27 in NE 4.0 mph 6.0 mph 63% 0.00 in
02:12 46.9 °F 35.0 °F 30.27 in NE 7.0 mph 7.0 mph 63% 0.00 in
02:17 47.1 °F 35.2 °F 30.27 in NE 5.0 mph 7.0 mph 63% 0.00 in
02:22 47.2 °F 35.3 °F 30.27 in NE 3.0 mph 6.0 mph 63% 0.00 in
02:27 47.0 °F 35.1 °F 30.27 in NE 3.0 mph 6.0 mph 63% 0.00 in
02:32 46.9 °F 35.4 °F 30.27 in NE 8.0 mph 8.0 mph 64% 0.00 in
02:37 47.0 °F 35.5 °F 30.26 in NE 3.0 mph 6.0 mph 64% 0.00 in
02:42 47.0 °F 35.5 °F 30.26 in NE 6.0 mph 8.0 mph 64% 0.00 in
02:47 47.0 °F 35.5 °F 30.26 in NE 3.0 mph 7.0 mph 64% 0.00 in
02:52 46.9 °F 35.4 °F 30.26 in ENE 4.0 mph 6.0 mph 64% 0.00 in
02:57 46.8 °F 35.7 °F 30.26 in NE 3.0 mph 5.0 mph 65% 0.00 in
03:02 46.7 °F 35.6 °F 30.27 in ENE 2.0 mph 4.0 mph 65% 0.00 in
03:07 46.5 °F 35.4 °F 30.27 in ENE 2.0 mph 2.0 mph 65% 0.00 in
03:12 46.4 °F 35.3 °F 30.27 in ENE 2.0 mph 3.0 mph 65% 0.00 in
03:17 46.3 °F 35.2 °F 30.27 in NE 4.0 mph 4.0 mph 65% 0.00 in
03:22 46.3 °F 35.2 °F 30.27 in NE 2.0 mph 3.0 mph 65% 0.00 in
03:27 46.2 °F 35.5 °F 30.26 in NE 2.0 mph 4.0 mph 66% 0.00 in
03:32 46.1 °F 35.4 °F 30.26 in ENE 2.0 mph 5.0 mph 66% 0.00 in
03:37 46.1 °F 35.4 °F 30.26 in NE 3.0 mph 5.0 mph 66% 0.00 in
03:42 46.0 °F 35.3 °F 30.26 in NE 2.0 mph 4.0 mph 66% 0.00 in
03:47 46.1 °F 35.4 °F 30.26 in ENE 4.0 mph 5.0 mph 66% 0.00 in
03:52 46.0 °F 35.3 °F 30.26 in NE 5.0 mph 5.0 mph 66% 0.00 in
03:57 46.3 °F 35.6 °F 30.25 in NE 4.0 mph 6.0 mph 66% 0.00 in
04:02 46.0 °F 35.3 °F 30.25 in NE 3.0 mph 7.0 mph 66% 0.00 in
04:07 45.7 °F 35.4 °F 30.25 in NE 4.0 mph 5.0 mph 67% 0.00 in
04:12 45.4 °F 35.1 °F 30.25 in NE 6.0 mph 6.0 mph 67% 0.00 in
04:17 45.2 °F 35.3 °F 30.25 in NE 5.0 mph 7.0 mph 68% 0.00 in
04:22 45.0 °F 35.1 °F 30.25 in NNE 5.0 mph 7.0 mph 68% 0.00 in
04:27 45.2 °F 35.3 °F 30.24 in ENE 5.0 mph 8.0 mph 68% 0.00 in
04:32 45.1 °F 35.2 °F 30.24 in ENE 6.0 mph 7.0 mph 68% 0.00 in
04:37 44.9 °F 35.4 °F 30.24 in NE 5.0 mph 7.0 mph 69% 0.00 in
04:42 44.9 °F 35.4 °F 30.24 in NE 7.0 mph 8.0 mph 69% 0.00 in
04:48 44.8 °F 35.3 °F 30.25 in NE 7.0 mph 7.0 mph 69% 0.00 in
04:53 44.8 °F 35.3 °F 30.25 in ENE 4.0 mph 7.0 mph 69% 0.00 in
04:58 44.8 °F 35.3 °F 30.25 in NE 4.0 mph 6.0 mph 69% 0.00 in
05:03 44.7 °F 35.2 °F 30.25 in NE 4.0 mph 6.0 mph 69% 0.00 in
05:08 44.6 °F 35.1 °F 30.25 in ENE 6.0 mph 6.0 mph 69% 0.00 in
05:13 44.5 °F 35.0 °F 30.25 in NE 3.0 mph 7.0 mph 69% 0.00 in
05:18 44.4 °F 34.9 °F 30.25 in NE 4.0 mph 6.0 mph 69% 0.00 in
05:23 44.3 °F 34.8 °F 30.25 in NE 5.0 mph 5.0 mph 69% 0.00 in
05:28 44.3 °F 35.2 °F 30.25 in ENE 3.0 mph 5.0 mph 70% 0.00 in
05:33 44.1 °F 35.0 °F 30.25 in ESE 3.0 mph 4.0 mph 70% 0.00 in
05:38 43.9 °F 34.8 °F 30.25 in ENE 3.0 mph 4.0 mph 70% 0.00 in
05:43 43.8 °F 35.0 °F 30.25 in East 3.0 mph 4.0 mph 71% 0.00 in
05:48 43.9 °F 34.8 °F 30.26 in East 3.0 mph 6.0 mph 70% 0.00 in
05:53 43.7 °F 34.9 °F 30.26 in ENE 3.0 mph 4.0 mph 71% 0.00 in
05:58 43.7 °F 34.9 °F 30.26 in ENE 5.0 mph 5.0 mph 71% 0.00 in
06:03 43.8 °F 34.7 °F 30.25 in East 2.0 mph 4.0 mph 70% 0.00 in
06:08 43.7 °F 34.9 °F 30.25 in East 3.0 mph 5.0 mph 71% 0.00 in
06:13 43.5 °F 34.7 °F 30.25 in East 3.0 mph 5.0 mph 71% 0.00 in
06:18 43.5 °F 34.7 °F 30.25 in East 2.0 mph 5.0 mph 71% 0.00 in
06:23 43.5 °F 34.7 °F 30.25 in ENE 4.0 mph 6.0 mph 71% 0.00 in
06:28 43.5 °F 34.7 °F 30.25 in NE 4.0 mph 5.0 mph 71% 0.00 in
06:33 43.5 °F 34.7 °F 30.25 in East 4.0 mph 5.0 mph 71% 0.00 in
06:38 43.5 °F 34.7 °F 30.26 in ENE 3.0 mph 6.0 mph 71% 0.00 in
06:43 43.6 °F 34.8 °F 30.25 in East 3.0 mph 7.0 mph 71% 0.00 in
06:48 43.6 °F 34.8 °F 30.26 in ENE 3.0 mph 4.0 mph 71% 0.00 in
06:53 43.3 °F 34.5 °F 30.26 in NNE 3.0 mph 4.0 mph 71% 0.00 in
06:58 42.9 °F 34.5 °F 30.26 in NE 1.0 mph 4.0 mph 72% 0.00 in
07:04 42.8 °F 34.4 °F 30.26 in NE 3.0 mph 4.0 mph 72% 0.00 in
07:09 43.1 °F 34.7 °F 30.26 in ENE 3.0 mph 6.0 mph 72% 0.00 in
07:14 43.4 °F 34.6 °F 30.26 in NE 5.0 mph 6.0 mph 71% 0.00 in
07:19 43.3 °F 34.5 °F 30.26 in NE 4.0 mph 5.0 mph 71% 0.00 in
07:24 43.2 °F 34.5 °F 30.26 in ENE 4.0 mph 8.0 mph 71% 0.00 in
07:29 43.6 °F 34.5 °F 30.26 in ENE 6.0 mph 6.0 mph 70% 0.00 in
07:34 44.0 °F 34.9 °F 30.26 in ENE 2.0 mph 7.0 mph 70% 0.00 in
07:39 44.0 °F 34.5 °F 30.26 in ENE 4.0 mph 7.0 mph 69% 0.00 in
07:44 44.1 °F 34.6 °F 30.26 in East 3.0 mph 5.0 mph 69% 0.00 in
07:49 44.1 °F 34.6 °F 30.27 in NE 6.0 mph 6.0 mph 69% 0.00 in
07:54 44.3 °F 34.8 °F 30.27 in ENE 4.0 mph 6.0 mph 69% 0.00 in
07:59 44.3 °F 34.8 °F 30.27 in SE 1.0 mph 6.0 mph 69% 0.00 in
08:04 44.4 °F 34.9 °F 30.27 in East 2.0 mph 6.0 mph 69% 0.00 in
08:09 44.3 °F 34.8 °F 30.28 in ENE 4.0 mph 7.0 mph 69% 0.00 in
08:14 44.5 °F 35.0 °F 30.28 in East 3.0 mph 6.0 mph 69% 0.00 in
08:19 44.5 °F 35.0 °F 30.27 in East 4.0 mph 5.0 mph 69% 0.00 in
08:24 44.7 °F 35.2 °F 30.28 in East 2.0 mph 6.0 mph 69% 0.00 in
08:29 44.9 °F 35.4 °F 30.28 in East 4.0 mph 5.0 mph 69% 0.00 in
08:34 45.3 °F 35.7 °F 30.28 in East 3.0 mph 5.0 mph 69% 0.00 in
08:39 45.7 °F 36.1 °F 30.28 in East 4.0 mph 6.0 mph 69% 0.00 in
08:44 46.0 °F 36.4 °F 30.28 in East 3.0 mph 6.0 mph 69% 0.00 in
08:49 46.3 °F 36.3 °F 30.28 in East 4.0 mph 5.0 mph 68% 0.00 in
08:54 46.4 °F 36.8 °F 30.28 in ESE 4.0 mph 6.0 mph 69% 0.00 in
08:59 46.6 °F 36.6 °F 30.28 in SE 5.0 mph 7.0 mph 68% 0.00 in
09:04 46.7 °F 37.1 °F 30.28 in ESE 4.0 mph 7.0 mph 69% 0.00 in
09:09 47.0 °F 36.6 °F 30.28 in East 6.0 mph 9.0 mph 67% 0.00 in
09:14 47.2 °F 36.8 °F 30.28 in ESE 8.0 mph 8.0 mph 67% 0.00 in
09:19 47.4 °F 36.6 °F 30.28 in ESE 6.0 mph 8.0 mph 66% 0.00 in
09:24 47.6 °F 36.8 °F 30.28 in ESE 7.0 mph 7.0 mph 66% 0.00 in
09:29 47.7 °F 37.3 °F 30.28 in SE 5.0 mph 8.0 mph 67% 0.00 in
09:34 47.9 °F 37.1 °F 30.28 in SE 5.0 mph 8.0 mph 66% 0.00 in
09:39 47.9 °F 37.1 °F 30.28 in ESE 5.0 mph 7.0 mph 66% 0.00 in
09:42 47.9 °F 36.7 °F 30.28 in ESE 4.0 mph 8.0 mph 65% 0.00 in
09:47 47.9 °F 37.1 °F 30.28 in ESE 6.0 mph 9.0 mph 66% 0.00 in
09:52 47.9 °F 37.1 °F 30.28 in ESE 8.0 mph 10.0 mph 66% 0.00 in
09:57 48.0 °F 36.8 °F 30.28 in East 5.0 mph 9.0 mph 65% 0.00 in
10:02 48.2 °F 37.0 °F 30.28 in East 7.0 mph 13.0 mph 65% 0.00 in
10:07 48.5 °F 37.7 °F 30.28 in SE 7.0 mph 13.0 mph 66% 0.00 in
10:12 48.8 °F 38.0 °F 30.28 in ESE 6.0 mph 10.0 mph 66% 0.00 in
10:17 49.1 °F 37.5 °F 30.28 in ESE 8.0 mph 11.0 mph 64% 0.00 in
10:22 49.5 °F 37.4 °F 30.28 in SE 7.0 mph 11.0 mph 63% 0.00 in
10:27 49.9 °F 38.6 °F 30.29 in ESE 9.0 mph 9.0 mph 65% 0.00 in
10:32 50.4 °F 38.7 °F 30.29 in ESE 11.0 mph 11.0 mph 64% 0.00 in
10:37 50.8 °F 39.1 °F 30.29 in SE 7.0 mph 10.0 mph 64% 0.00 in
10:43 51.4 °F 39.2 °F 30.29 in ESE 10.0 mph 12.0 mph 63% 0.00 in
10:48 51.8 °F 40.0 °F 30.29 in East 7.0 mph 8.0 mph 64% 0.00 in
10:53 52.3 °F 40.1 °F 30.29 in ESE 6.0 mph 11.0 mph 63% 0.00 in
10:58 52.9 °F 40.7 °F 30.29 in ESE 5.0 mph 10.0 mph 63% 0.00 in
11:03 53.6 °F 40.1 °F 30.29 in SE 7.0 mph 12.0 mph 60% 0.00 in
11:08 54.4 °F 38.1 °F 30.30 in SE 10.0 mph 19.0 mph 54% 0.00 in
11:13 54.9 °F 39.0 °F 30.30 in SE 13.0 mph 13.0 mph 55% 0.00 in
11:18 55.3 °F 39.0 °F 30.30 in SSE 14.0 mph 21.0 mph 54% 0.00 in
11:23 55.5 °F 39.1 °F 30.30 in SE 14.0 mph 14.0 mph 54% 0.00 in
11:28 55.7 °F 38.4 °F 30.29 in SE 10.0 mph 14.0 mph 52% 0.00 in
11:33 55.9 °F 40.0 °F 30.29 in SSE 4.0 mph 14.0 mph 55% 0.00 in
11:38 56.1 °F 39.2 °F 30.29 in ESE 9.0 mph 13.0 mph 53% 0.00 in
11:43 56.1 °F 39.2 °F 30.29 in SE 13.0 mph 20.0 mph 53% 0.00 in
11:48 56.2 °F 39.3 °F 30.29 in SE 10.0 mph 13.0 mph 53% 0.00 in
11:53 56.3 °F 38.9 °F 30.29 in SE 9.0 mph 15.0 mph 52% 0.00 in
11:58 56.5 °F 39.6 °F 30.28 in SE 10.0 mph 13.0 mph 53% 0.00 in
12:03 56.5 °F 39.6 °F 30.28 in SSE 9.0 mph 11.0 mph 53% 0.00 in
12:09 56.7 °F 39.3 °F 30.28 in SE 6.0 mph 16.0 mph 52% 0.00 in
12:14 56.7 °F 39.3 °F 30.29 in SE 10.0 mph 13.0 mph 52% 0.00 in
12:19 56.8 °F 39.9 °F 30.28 in SE 6.0 mph 9.0 mph 53% 0.00 in
12:24 56.9 °F 40.4 °F 30.28 in SE 6.0 mph 7.0 mph 54% 0.00 in
12:29 57.0 °F 39.6 °F 30.28 in SE 8.0 mph 9.0 mph 52% 0.00 in
12:34 57.0 °F 40.5 °F 30.28 in SE 6.0 mph 10.0 mph 54% 0.00 in
12:39 57.1 °F 40.2 °F 30.28 in ESE 11.0 mph 13.0 mph 53% 0.00 in
12:44 57.1 °F 40.6 °F 30.27 in ESE 12.0 mph 12.0 mph 54% 0.00 in
12:49 57.2 °F 39.8 °F 30.27 in SE 10.0 mph 14.0 mph 52% 0.00 in
12:54 57.4 °F 39.9 °F 30.27 in SE 7.0 mph 11.0 mph 52% 0.00 in
12:59 57.8 °F 41.3 °F 30.26 in ESE 7.0 mph 8.0 mph 54% 0.00 in
13:04 57.8 °F 40.3 °F 30.26 in SE 9.0 mph 15.0 mph 52% 0.00 in
13:09 57.9 °F 40.9 °F 30.26 in ESE 6.0 mph 12.0 mph 53% 0.00 in
13:14 58.1 °F 41.1 °F 30.26 in SE 6.0 mph 10.0 mph 53% 0.00 in
13:19 58.1 °F 40.6 °F 30.25 in ESE 7.0 mph 14.0 mph 52% 0.00 in
13:24 58.2 °F 41.7 °F 30.25 in ESE 6.0 mph 12.0 mph 54% 0.00 in
13:29 58.2 °F 41.2 °F 30.25 in SE 12.0 mph 12.0 mph 53% 0.00 in
13:34 58.2 °F 41.2 °F 30.25 in SE 9.0 mph 14.0 mph 53% 0.00 in
13:39 58.3 °F 41.3 °F 30.25 in ESE 9.0 mph 11.0 mph 53% 0.00 in
13:44 58.3 °F 40.3 °F 30.25 in SE 11.0 mph 13.0 mph 51% 0.00 in
13:49 58.4 °F 41.8 °F 30.25 in ESE 9.0 mph 12.0 mph 54% 0.00 in
13:54 58.3 °F 41.3 °F 30.25 in SE 11.0 mph 12.0 mph 53% 0.00 in
13:59 58.3 °F 40.8 °F 30.25 in ESE 11.0 mph 11.0 mph 52% 0.00 in
14:04 58.4 °F 40.9 °F 30.25 in SE 6.0 mph 11.0 mph 52% 0.00 in
14:10 58.5 °F 41.5 °F 30.25 in SE 5.0 mph 10.0 mph 53% 0.00 in
14:15 58.6 °F 42.0 °F 30.25 in SE 8.0 mph 12.0 mph 54% 0.00 in
14:20 58.7 °F 41.1 °F 30.25 in SE 6.0 mph 10.0 mph 52% 0.00 in
14:25 58.8 °F 42.2 °F 30.25 in ESE 10.0 mph 10.0 mph 54% 0.00 in
14:30 58.9 °F 42.3 °F 30.25 in SE 11.0 mph 12.0 mph 54% 0.00 in
14:35 59.1 °F 43.0 °F 30.25 in SSE 3.0 mph 7.0 mph 55% 0.00 in
14:40 59.2 °F 42.6 °F 30.25 in SSE 4.0 mph 11.0 mph 54% 0.00 in
14:45 59.2 °F 42.1 °F 30.24 in SE 7.0 mph 13.0 mph 53% 0.00 in
14:50 59.3 °F 42.7 °F 30.24 in SE 5.0 mph 8.0 mph 54% 0.00 in
14:55 59.3 °F 42.7 °F 30.24 in SE 10.0 mph 10.0 mph 54% 0.00 in
15:00 59.1 °F 43.0 °F 30.24 in SE 3.0 mph 10.0 mph 55% 0.00 in
15:05 59.1 °F 42.5 °F 30.24 in SE 5.0 mph 8.0 mph 54% 0.00 in
15:10 59.0 °F 41.9 °F 30.24 in SE 9.0 mph 11.0 mph 53% 0.00 in
15:15 59.0 °F 41.9 °F 30.24 in SE 7.0 mph 8.0 mph 53% 0.00 in
15:20 58.9 °F 42.3 °F 30.24 in ESE 6.0 mph 10.0 mph 54% 0.00 in
15:25 58.7 °F 41.6 °F 30.24 in SE 8.0 mph 10.0 mph 53% 0.00 in
15:30 58.6 °F 41.5 °F 30.24 in ESE 4.0 mph 12.0 mph 53% 0.00 in
15:35 58.4 °F 41.8 °F 30.24 in SSE 4.0 mph 12.0 mph 54% 0.00 in
15:40 58.4 °F 41.8 °F 30.24 in SE 10.0 mph 11.0 mph 54% 0.00 in
15:45 58.4 °F 41.8 °F 30.24 in SE 6.0 mph 11.0 mph 54% 0.00 in
15:50 58.2 °F 42.1 °F 30.24 in SE 5.0 mph 9.0 mph 55% 0.00 in
15:55 58.2 °F 42.1 °F 30.24 in SE 7.0 mph 8.0 mph 55% 0.00 in
16:00 58.1 °F 42.5 °F 30.24 in ESE 3.0 mph 7.0 mph 56% 0.00 in
16:05 58.1 °F 41.6 °F 30.24 in SE 8.0 mph 11.0 mph 54% 0.00 in
16:10 58.1 °F 41.6 °F 30.24 in SE 8.0 mph 9.0 mph 54% 0.00 in
16:15 58.1 °F 42.5 °F 30.24 in ESE 8.0 mph 8.0 mph 56% 0.00 in
16:20 57.9 °F 42.3 °F 30.24 in ESE 3.0 mph 8.0 mph 56% 0.00 in
16:25 57.9 °F 42.3 °F 30.24 in ESE 5.0 mph 9.0 mph 56% 0.00 in
16:30 57.8 °F 42.2 °F 30.24 in ESE 4.0 mph 8.0 mph 56% 0.00 in
16:35 57.8 °F 41.8 °F 30.24 in SE 6.0 mph 8.0 mph 55% 0.00 in
16:40 57.8 °F 41.8 °F 30.24 in SE 6.0 mph 9.0 mph 55% 0.00 in
16:45 57.8 °F 42.2 °F 30.24 in ESE 6.0 mph 11.0 mph 56% 0.00 in
16:50 57.7 °F 41.7 °F 30.24 in ESE 10.0 mph 10.0 mph 55% 0.00 in
16:55 57.6 °F 42.5 °F 30.24 in ESE 6.0 mph 9.0 mph 57% 0.00 in
17:00 57.5 °F 42.4 °F 30.24 in SE 6.0 mph 9.0 mph 57% 0.00 in
17:05 57.5 °F 42.4 °F 30.23 in SE 5.0 mph 7.0 mph 57% 0.00 in
17:10 57.5 °F 42.4 °F 30.24 in SE 5.0 mph 8.0 mph 57% 0.00 in
17:15 57.6 °F 42.5 °F 30.24 in SE 6.0 mph 8.0 mph 57% 0.00 in
17:20 57.5 °F 42.4 °F 30.24 in ESE 6.0 mph 7.0 mph 57% 0.00 in
17:25 57.4 °F 42.8 °F 30.24 in SE 4.0 mph 7.0 mph 58% 0.00 in
17:30 57.4 °F 42.8 °F 30.24 in ESE 7.0 mph 9.0 mph 58% 0.00 in
17:36 57.2 °F 43.0 °F 30.24 in SE 5.0 mph 9.0 mph 59% 0.00 in
17:41 57.2 °F 43.0 °F 30.24 in SE 4.0 mph 9.0 mph 59% 0.00 in
17:46 57.1 °F 43.4 °F 30.24 in SE 5.0 mph 8.0 mph 60% 0.00 in
17:51 57.0 °F 43.7 °F 30.24 in SE 5.0 mph 9.0 mph 61% 0.00 in
17:56 56.7 °F 43.8 °F 30.24 in ESE 6.0 mph 10.0 mph 62% 0.00 in
18:01 56.3 °F 44.3 °F 30.24 in SE 5.0 mph 7.0 mph 64% 0.00 in
18:06 56.1 °F 44.5 °F 30.24 in ESE 5.0 mph 8.0 mph 65% 0.00 in
18:11 55.7 °F 44.5 °F 30.24 in SE 4.0 mph 6.0 mph 66% 0.00 in
18:16 55.4 °F 44.6 °F 30.24 in SE 5.0 mph 7.0 mph 67% 0.00 in
18:21 55.2 °F 45.2 °F 30.23 in ESE 6.0 mph 8.0 mph 69% 0.00 in
18:26 54.9 °F 45.3 °F 30.23 in ESE 9.0 mph 9.0 mph 70% 0.00 in
18:31 54.7 °F 45.1 °F 30.23 in SE 4.0 mph 8.0 mph 70% 0.00 in
18:36 54.6 °F 45.4 °F 30.23 in ESE 6.0 mph 7.0 mph 71% 0.00 in
18:41 54.5 °F 45.3 °F 30.23 in ESE 5.0 mph 7.0 mph 71% 0.00 in
18:46 54.4 °F 45.2 °F 30.23 in ESE 5.0 mph 9.0 mph 71% 0.00 in
18:51 54.5 °F 44.9 °F 30.23 in ESE 12.0 mph 12.0 mph 70% 0.00 in
18:56 54.7 °F 45.1 °F 30.22 in ESE 8.0 mph 10.0 mph 70% 0.00 in
19:01 54.6 °F 45.0 °F 30.22 in ESE 7.0 mph 9.0 mph 70% 0.00 in
19:07 54.6 °F 45.0 °F 30.22 in East 7.0 mph 8.0 mph 70% 0.00 in
19:12 54.6 °F 45.0 °F 30.22 in ESE 8.0 mph 10.0 mph 70% 0.00 in
19:17 54.6 °F 45.0 °F 30.22 in East 10.0 mph 11.0 mph 70% 0.00 in
19:22 54.8 °F 44.8 °F 30.22 in ESE 6.0 mph 9.0 mph 69% 0.00 in
19:27 54.7 °F 45.1 °F 30.22 in ESE 4.0 mph 6.0 mph 70% 0.00 in
19:32 54.7 °F 45.1 °F 30.22 in ESE 5.0 mph 8.0 mph 70% 0.00 in
19:37 54.7 °F 44.4 °F 30.22 in ESE 6.0 mph 9.0 mph 68% 0.00 in
19:42 54.8 °F 44.8 °F 30.22 in SE 4.0 mph 7.0 mph 69% 0.00 in
19:47 54.9 °F 44.9 °F 30.22 in SE 5.0 mph 7.0 mph 69% 0.00 in
19:52 54.8 °F 44.8 °F 30.22 in ESE 6.0 mph 6.0 mph 69% 0.00 in
19:57 54.6 °F 45.0 °F 30.22 in SE 5.0 mph 5.0 mph 70% 0.00 in
20:02 54.6 °F 44.7 °F 30.22 in SE 6.0 mph 8.0 mph 69% 0.00 in
20:07 54.9 °F 44.5 °F 30.22 in SE 6.0 mph 7.0 mph 68% 0.00 in
20:12 55.1 °F 44.7 °F 30.22 in SE 5.0 mph 9.0 mph 68% 0.00 in
20:17 55.1 °F 45.1 °F 30.23 in SSE 9.0 mph 11.0 mph 69% 0.00 in
20:22 55.2 °F 45.2 °F 30.22 in ESE 6.0 mph 11.0 mph 69% 0.00 in
20:27 55.1 °F 45.5 °F 30.22 in ESE 8.0 mph 11.0 mph 70% 0.00 in
20:32 54.9 °F 45.7 °F 30.23 in SE 7.0 mph 11.0 mph 71% 0.00 in
20:37 54.8 °F 46.0 °F 30.23 in SE 8.0 mph 12.0 mph 72% 0.00 in
20:42 54.7 °F 46.2 °F 30.22 in SE 4.0 mph 10.0 mph 73% 0.00 in
20:47 54.6 °F 46.1 °F 30.22 in ESE 8.0 mph 10.0 mph 73% 0.00 in
20:52 54.5 °F 46.4 °F 30.22 in ESE 8.0 mph 9.0 mph 74% 0.00 in
20:57 54.3 °F 46.6 °F 30.22 in SE 9.0 mph 9.0 mph 75% 0.00 in
21:02 54.3 °F 46.6 °F 30.22 in SSE 6.0 mph 10.0 mph 75% 0.00 in
21:07 54.3 °F 46.6 °F 30.22 in ESE 9.0 mph 12.0 mph 75% 0.00 in
21:12 54.1 °F 46.7 °F 30.22 in SE 10.0 mph 14.0 mph 76% 0.00 in
21:17 53.8 °F 46.8 °F 30.22 in SE 5.0 mph 14.0 mph 77% 0.00 in
21:22 53.6 °F 46.6 °F 30.21 in SE 7.0 mph 10.0 mph 77% 0.00 in
21:27 53.6 °F 46.6 °F 30.21 in SSE 6.0 mph 13.0 mph 77% 0.00 in
21:32 53.5 °F 46.8 °F 30.22 in ESE 10.0 mph 13.0 mph 78% 0.00 in
21:37 53.5 °F 46.8 °F 30.22 in SE 6.0 mph 11.0 mph 78% 0.00 in
21:42 53.2 °F 47.2 °F 30.22 in ESE 14.0 mph 14.0 mph 80% 0.00 in
21:47 52.7 °F 47.4 °F 30.22 in SSE 8.0 mph 11.0 mph 82% 0.00 in
21:52 52.2 °F 47.5 °F 30.21 in South 7.0 mph 10.0 mph 84% 0.00 in
21:57 51.8 °F 47.8 °F 30.22 in ESE 10.0 mph 11.0 mph 86% 0.00 in
22:02 51.4 °F 48.0 °F 30.23 in SSW 4.0 mph 7.0 mph 88% 0.00 in
22:07 51.1 °F 48.0 °F 30.22 in ESE 8.0 mph 9.0 mph 89% 0.00 in
22:12 50.9 °F 48.1 °F 30.22 in ESE 8.0 mph 11.0 mph 90% 0.00 in
22:18 50.7 °F 47.9 °F 30.21 in SE 5.0 mph 10.0 mph 90% 0.00 in
22:23 50.5 °F 48.0 °F 30.22 in SSE 5.0 mph 7.0 mph 91% 0.00 in
22:28 50.4 °F 48.2 °F 30.21 in SE 4.0 mph 7.0 mph 92% 0.00 in
22:33 50.3 °F 48.1 °F 30.21 in SE 5.0 mph 9.0 mph 92% 0.00 in
22:38 50.3 °F 48.4 °F 30.21 in SE 5.0 mph 8.0 mph 93% 0.00 in
22:43 50.2 °F 48.3 °F 30.21 in East 6.0 mph 10.0 mph 93% 0.00 in
22:48 50.2 °F 48.3 °F 30.20 in ESE 8.0 mph 11.0 mph 93% 0.06 in
22:53 50.2 °F 48.3 °F 30.20 in ESE 9.0 mph 12.0 mph 93% 0.06 in
22:58 50.2 °F 48.3 °F 30.20 in ESE 7.0 mph 11.0 mph 93% 0.04 in
23:03 50.2 °F 48.3 °F 30.20 in ESE 7.0 mph 11.0 mph 93% 0.00 in
23:08 50.2 °F 48.3 °F 30.20 in SE 10.0 mph 11.0 mph 93% 0.00 in
23:13 50.2 °F 48.3 °F 30.19 in ESE 8.0 mph 9.0 mph 93% 0.00 in
23:18 50.3 °F 48.4 °F 30.19 in ESE 9.0 mph 13.0 mph 93% 0.00 in
23:23 50.3 °F 48.1 °F 30.19 in ESE 8.0 mph 10.0 mph 92% 0.00 in
23:28 50.3 °F 48.1 °F 30.19 in ESE 7.0 mph 9.0 mph 92% 0.00 in
23:33 50.3 °F 48.1 °F 30.19 in ESE 8.0 mph 9.0 mph 92% 0.00 in
23:38 50.4 °F 48.2 °F 30.19 in ESE 8.0 mph 10.0 mph 92% 0.00 in
23:43 50.5 °F 48.3 °F 30.19 in SSE 7.0 mph 11.0 mph 92% 0.00 in
23:48 50.6 °F 48.1 °F 30.19 in SE 5.0 mph 9.0 mph 91% 0.00 in
23:53 50.5 °F 48.3 °F 30.19 in ESE 9.0 mph 11.0 mph 92% 0.00 in
23:58 50.3 °F 48.1 °F 30.19 in ESE 9.0 mph 9.0 mph 92% 0.00 in
Compliments of Weather Underground